| time (UTC) | temp F | wind direction | speed MPH | gust MPH | rain 1hr in | rain 24hr in | rain mn in | humidity % | barometer mb |
| 20260508204528 | 53 | 5 | 0.0 | 11.0 | 0.00 | 0.09 | 0.09 | 54 | 1007.1 |
| 20260508203027 | 55 | 357 | 5.0 | 11.0 | 0.00 | 0.09 | 0.09 | 58 | 1007.2 |
| 20260508201529 | 54 | 297 | 5.0 | 13.0 | 0.00 | 0.09 | 0.09 | 55 | 1007.4 |
| 20260508200022 | 54 | 294 | 8.0 | 15.0 | 0.00 | 0.09 | 0.09 | 58 | 1007.7 |
| 20260508194522 | 54 | 302 | 6.0 | 11.0 | 0.00 | 0.09 | 0.09 | 61 | 1007.7 |
| 20260508193039 | 53 | 334 | 4.0 | 11.0 | 0.00 | 0.09 | 0.09 | 59 | 1008.0 |
| 20260508191523 | 54 | 329 | 5.0 | 15.0 | 0.00 | 0.09 | 0.09 | 65 | 1008.2 |
| 20260508190030 | 53 | 261 | 5.0 | 15.0 | 0.00 | 0.09 | 0.09 | 61 | 1008.3 |
| 20260508184518 | 52 | 269 | 7.0 | 13.0 | 0.00 | 0.09 | 0.09 | 62 | 1008.4 |
| 20260508183017 | 51 | 323 | 7.0 | 13.0 | 0.00 | 0.09 | 0.09 | 62 | 1008.4 |
| 20260508181521 | 51 | 301 | 6.0 | 13.0 | 0.00 | 0.09 | 0.09 | 65 | 1008.4 |
| 20260508180014 | 49 | 250 | 5.0 | 14.0 | 0.00 | 0.09 | 0.09 | 61 | 1008.6 |
| 20260508174513 | 50 | 258 | 6.0 | 14.0 | 0.00 | 0.09 | 0.09 | 67 | 1008.8 |
| 20260508173011 | 50 | 285 | 10.0 | 15.0 | 0.00 | 0.09 | 0.09 | 68 | 1009.0 |
| 20260508171512 | 49 | 257 | 7.0 | 11.0 | 0.00 | 0.09 | 0.09 | 67 | 1009.2 |
| 20260508170007 | 48 | 325 | 7.0 | 12.0 | 0.00 | 0.09 | 0.09 | 65 | 1009.2 |
| 20260508164504 | 46 | 258 | 3.0 | 10.0 | 0.00 | 0.09 | 0.09 | 62 | 1009.4 |
| 20260508163003 | 46 | 344 | 1.0 | 12.0 | 0.00 | 0.09 | 0.09 | 62 | 1009.3 |
| 20260508161503 | 45 | 263 | 6.0 | 9.0 | 0.00 | 0.09 | 0.09 | 61 | 1009.6 |
| 20260508154559 | 43 | 285 | 3.0 | 9.0 | 0.00 | 0.09 | 0.09 | 58 | 1009.8 |
| 20260508153059 | 43 | 262 | 1.0 | 7.0 | 0.00 | 0.09 | 0.09 | 57 | 1009.7 |
| 20260508151558 | 42 | 260 | 5.0 | 9.0 | 0.00 | 0.09 | 0.09 | 53 | 1009.7 |
| 20260508150053 | 41 | 334 | 1.0 | 4.0 | 0.00 | 0.09 | 0.09 | 51 | 1009.6 |
| 20260508144551 | 41 | 334 | 1.0 | 5.0 | 0.00 | 0.09 | 0.09 | 50 | 1009.7 |
| 20260508143051 | 40 | 334 | 0.0 | 4.0 | 0.01 | 0.09 | 0.09 | 51 | 1009.5 |
| 20260508141549 | 40 | 334 | 0.0 | 4.0 | 0.01 | 0.09 | 0.09 | 50 | 1009.1 |
| 20260508140048 | 40 | 334 | 0.0 | 3.0 | 0.01 | 0.09 | 0.09 | 50 | 1009.1 |
| 20260508134547 | 40 | 334 | 1.0 | 4.0 | 0.02 | 0.09 | 0.09 | 51 | 1009.2 |
| 20260508133102 | 39 | 329 | 5.0 | 8.0 | 0.03 | 0.08 | 0.08 | 52 | 1009.6 |
| 20260508131544 | 39 | 339 | 3.0 | 10.0 | 0.04 | 0.08 | 0.08 | 53 | 1009.6 |
| 20260508130042 | 39 | 317 | 4.0 | 9.0 | 0.04 | 0.07 | 0.07 | 53 | 1009.4 |
| 20260508124541 | 38 | 287 | 3.0 | 8.0 | 0.04 | 0.07 | 0.07 | 55 | 1009.3 |
| 20260508123040 | 39 | 275 | 2.0 | 7.0 | 0.03 | 0.05 | 0.05 | 55 | 1009.2 |
| 20260508121537 | 39 | 275 | 3.0 | 7.0 | 0.03 | 0.04 | 0.04 | 55 | 1009.0 |
| 20260508120035 | 39 | 278 | 3.0 | 10.0 | 0.02 | 0.03 | 0.03 | 57 | 1008.5 |
| 20260508114533 | 39 | 279 | 6.0 | 11.0 | 0.03 | 0.03 | 0.03 | 58 | 1008.5 |
| 20260508113036 | 39 | 290 | 7.0 | 11.0 | 0.02 | 0.02 | 0.02 | 59 | 1008.4 |
| 20260508111532 | 39 | 286 | 3.0 | 8.0 | 0.01 | 0.01 | 0.01 | 59 | 1008.1 |
| 20260508110032 | 39 | 279 | 2.0 | 4.0 | 0.01 | 0.01 | 0.01 | 60 | 1007.8 |
| 20260508104529 | 39 | 278 | 4.0 | 9.0 | 0.00 | 0.00 | 0.00 | 59 | 1007.7 |
| 20260508103029 | 39 | 270 | 2.0 | 8.0 | 0.00 | 0.00 | 0.00 | 58 | 1007.8 |
| 20260508101527 | 39 | 271 | 1.0 | 4.0 | 0.00 | 0.00 | 0.00 | 57 | 1007.7 |
| 20260508100025 | 40 | 272 | 2.0 | 7.0 | 0.00 | 0.00 | 0.00 | 56 | 1008.0 |
| 20260508094524 | 40 | 272 | 3.0 | 8.0 | 0.00 | 0.00 | 0.00 | 55 | 1008.2 |
| 20260508093023 | 40 | 275 | 2.0 | 10.0 | 0.00 | 0.00 | 0.00 | 54 | 1008.4 |
| 20260508091532 | 40 | 269 | 4.0 | 9.0 | 0.00 | 0.00 | 0.00 | 54 | 1008.3 |
| 20260508090021 | 40 | 261 | 4.0 | 10.0 | 0.00 | 0.00 | 0.00 | 53 | 1008.4 |
| 20260508084520 | 40 | 273 | 4.0 | 10.0 | 0.00 | 0.00 | 0.00 | 53 | 1008.4 |
| 20260508083029 | 39 | 275 | 2.0 | 8.0 | 0.00 | 0.00 | 0.00 | 54 | 1008.3 |
| 20260508081518 | 39 | 277 | 3.0 | 8.0 | 0.00 | 0.00 | 0.00 | 54 | 1008.2 |
| 20260508080017 | 39 | 283 | 4.0 | 8.0 | 0.00 | 0.00 | 0.00 | 54 | 1008.0 |
| 20260508074518 | 39 | 290 | 2.0 | 8.0 | 0.00 | 0.00 | 0.00 | 55 | 1008.2 |
| 20260508073017 | 39 | 294 | 1.0 | 6.0 | 0.00 | 0.00 | 0.00 | 56 | 1008.1 |
| 20260508071514 | 38 | 294 | 3.0 | 6.0 | 0.00 | 0.00 | 0.00 | 57 | 1008.2 |
| 20260508070015 | 38 | 296 | 2.0 | 6.0 | 0.00 | 0.00 | 0.00 | 58 | 1008.4 |
| 20260508064519 | 38 | 299 | 2.0 | 6.0 | 0.00 | 0.00 | 0.00 | 58 | 1008.2 |
| 20260508063010 | 39 | 300 | 3.0 | 8.0 | 0.00 | 0.00 | 0.00 | 59 | 1008.5 |
| 20260508061508 | 39 | 312 | 2.0 | 5.0 | 0.00 | 0.00 | 0.00 | 60 | 1008.3 |
| 20260508060008 | 39 | 313 | 2.0 | 8.0 | 0.00 | 0.00 | 0.00 | 59 | 1008.6 |
| 20260508054505 | 40 | 315 | 5.0 | 10.0 | 0.00 | 0.00 | 0.00 | 60 | 1008.6 |
| 20260508053004 | 40 | 324 | 3.0 | 6.0 | 0.00 | 0.00 | 0.00 | 60 | 1008.7 |
| 20260508051501 | 40 | 325 | 3.0 | 6.0 | 0.00 | 0.00 | 0.00 | 60 | 1008.6 |
| 20260508050100 | 40 | 324 | 3.0 | 6.0 | 0.00 | 0.00 | 0.00 | 62 | 1008.5 |
| 20260508044559 | 40 | 324 | 4.0 | 9.0 | 0.00 | 0.00 | 0.00 | 63 | 1008.5 |
| 20260508043057 | 41 | 321 | 5.0 | 9.0 | 0.00 | 0.00 | 0.00 | 64 | 1008.5 |
| 20260508041554 | 41 | 326 | 5.0 | 12.0 | 0.00 | 0.00 | 0.00 | 64 | 1008.4 |
| 20260508040051 | 41 | 325 | 5.0 | 10.0 | 0.00 | 0.00 | 0.00 | 66 | 1008.3 |
| 20260508034551 | 41 | 334 | 3.0 | 12.0 | 0.00 | 0.00 | 0.00 | 68 | 1008.3 |
| 20260508033052 | 41 | 339 | 4.0 | 8.0 | 0.00 | 0.00 | 0.00 | 70 | 1008.4 |
| 20260508031549 | 42 | 339 | 2.0 | 9.0 | 0.00 | 0.00 | 0.00 | 72 | 1008.3 |
| 20260508030050 | 43 | 334 | 4.0 | 13.0 | 0.00 | 0.00 | 0.00 | 72 | 1008.3 |
| 20260508024549 | 44 | 356 | 5.0 | 14.0 | 0.00 | 0.00 | 0.00 | 70 | 1008.4 |
| 20260508023048 | 44 | 325 | 8.0 | 11.0 | 0.00 | 0.00 | 0.00 | 68 | 1008.3 |
| 20260508021552 | 43 | 299 | 6.0 | 14.0 | 0.00 | 0.00 | 0.00 | 69 | 1008.2 |
| 20260508020055 | 42 | 322 | 7.0 | 16.0 | 0.00 | 0.00 | 0.00 | 71 | 1008.1 |
| 20260508014547 | 41 | 11 | 2.0 | 4.0 | 0.00 | 0.00 | 0.00 | 72 | 1007.9 |
| 20260508013045 | 42 | 12 | 1.0 | 2.0 | 0.00 | 0.00 | 0.00 | 73 | 1007.6 |
| 20260508011550 | 43 | 13 | 0.0 | 1.0 | 0.00 | 0.00 | 0.00 | 73 | 1007.3 |
| 20260508010058 | 44 | 13 | 0.0 | 0.0 | 0.00 | 0.00 | 0.00 | 72 | 1007.1 |
| 20260508004543 | 45 | 13 | 0.0 | 0.0 | 0.00 | 0.00 | 0.00 | 70 | 1007.1 |
| 20260508003043 | 46 | 13 | 0.0 | 0.0 | 0.00 | 0.00 | 0.00 | 70 | 1007.2 |
| 20260508001544 | 47 | 13 | 0.0 | 4.0 | 0.00 | 0.00 | 0.00 | 67 | 1007.1 |
| 20260508000046 | 48 | 12 | 0.0 | 3.0 | 0.00 | 0.00 | 0.00 | 67 | 1006.9 |
| 20260507234542 | 48 | 12 | 1.0 | 8.0 | 0.00 | 0.00 | 0.00 | 65 | 1006.8 |
| 20260507233042 | 48 | 8 | 4.0 | 10.0 | 0.00 | 0.00 | 0.00 | 65 | 1006.7 |
| 20260507231541 | 48 | 15 | 3.0 | 9.0 | 0.00 | 0.00 | 0.00 | 66 | 1006.7 |
| 20260507230057 | 49 | 6 | 5.0 | 12.0 | 0.00 | 0.00 | 0.00 | 64 | 1006.7 |
| 20260507224542 | 49 | 9 | 6.0 | 12.0 | 0.00 | 0.00 | 0.00 | 63 | 1006.5 |
| 20260507223119 | 50 | 334 | 7.0 | 11.0 | 0.00 | 0.00 | 0.00 | 63 | 1006.5 |
| 20260507221539 | 50 | 350 | 8.0 | 13.0 | 0.00 | 0.00 | 0.00 | 63 | 1006.6 |
| 20260507220037 | 51 | 8 | 4.0 | 11.0 | 0.00 | 0.00 | 0.00 | 64 | 1006.5 |
| 20260507214544 | 51 | 6 | 5.0 | 15.0 | 0.00 | 0.00 | 0.00 | 62 | 1006.5 |
| 20260507213037 | 52 | 325 | 8.0 | 12.0 | 0.00 | 0.00 | 0.00 | 63 | 1006.5 |
| 20260507211535 | 53 | 13 | 5.0 | 13.0 | 0.00 | 0.00 | 0.00 | 63 | 1006.5 |
| 20260507210040 | 51 | 2 | 4.0 | 13.0 | 0.00 | 0.00 | 0.00 | 61 | 1006.6 |